ARIANE 42P DEB, 44510

Orbit data source: Space-Track

ARIANE 42P DEB, 44510 is space debris in LEO originally from a launch on Mon, 10 Aug 1992 UTC launched from the French Guiana (FRGUI). Debris objects in space refer to the collection of defunct objects orbiting the Earth. Examples of debris include non-operational satellites, rocket bodies, and fragments generated from explosions, collisions, or faulty payload assembly.

Loading next visibility...
Identifier
44510, 1992-052H
Orbit
LEO
Country
Flag of FRFR
Related business
Manufacturer
ArianeGroup
Mission
Spacecraft
Bus & Motor
Unknown
Mass
Unknown
Launch date (UTC)
1992-08-10 (34 years ago)
Launch vehicle
Unknown
Launch site
French Guiana (FRGUI)
Object type
Payload
Rocket body
Debris
Shape & HBR
Unknown shape, 0.1 m
Radar Cross Section
Small (<0.1 m²)

Expand to show TLE details & history
Last TLE update: 10 hours ago

TLE from 10 hours ago
0 ARIANE 42P DEB
1 44510U 92052H   26094.13053906  .00001871  00000-0  80109-2 0  9997
2 44510  66.0587  92.2235 0115726 330.2387  29.2079 12.82162968310108
Epoch: 2026-04-04T03:07Z
TLE epoch observation values (Epoch: 2026-04-04T03:07:58.574Z)
Latitude
-0.00003°
Longitude
-147.2253°
Altitude
1,257.052 km
Speed
7.263 km/s
True Right ascension
06h 08m 53s
True Declination
0° 00' 00"
Sunlit
Object was in daylight at epoch
Visualization orbit readout
Latitude
Unknown
Longitude
Unknown
Altitude
Unknown
Speed
Unknown
Apparent Right ascension
Unknown
Apparent Declination
Unknown
Sunlit
N/A
Visualization observer readout
Local Sidereal Time
19:10:12
Azimuth
Unknown
Elevation
Unknown
Doppler factor
Unknown
Orbital elements
Apogee altitude
1,420.564 km
Perigee altitude
1,242.127 km
Semi-major axis
7,709.482 km
Eccentricity
0.01157
Inclination
66.0587°
RAAN
92.2235°
Arg. of periapsis
330.2387°
True anomaly
29.86328°
Mean anomaly
29.2079°
Eccentric anomaly
29.53476°
Mean motion
3.20631 °/min
Orbital period
112.28 mins
BSTAR
0.0080109
Loading maneuver chart data...
Computing Atmospheric mass density...
Loading historical data...
Loading historical data...
Loading historical data...
Loading historical data...
Loading historical data...
Loading historical data...
Loading historical data...

Documentation

Showing up to 5 results
|